GW3385 Weather Reports


Display with metric or nautical units.
time (UTC)temp
F
wind
direction
speed
MPH
gust
MPH
rain 1hr
in
rain 24hr
in
rain mn
in
humidity
%
barometer
mb
20260510214556 67 300 6.0 13.0 0.00 0.00 0.00 77 1012.3
20260510214056 67 254 6.0 13.0 0.00 0.00 0.00 77 1012.4
20260510213557 68 220 6.0 11.0 0.00 0.00 0.00 75 1012.4
20260510213054 68 173 3.0 10.0 0.00 0.00 0.00 77 1012.5
20260510212556 68 252 5.0 12.0 0.00 0.00 0.00 77 1012.5
20260510212055 68 212 5.0 12.0 0.00 0.00 0.00 77 1012.5
20260510211554 68 217 4.0 11.0 0.00 0.00 0.00 77 1012.5
20260510211055 68 281 4.0 11.0 0.00 0.00 0.00 77 1012.6
20260510210555 67 277 5.0 10.0 0.00 0.00 0.00 77 1012.5
20260510210100 67 192 5.0 10.0 0.00 0.00 0.00 77 1012.7
20260510205558 67 216 4.0 13.0 0.00 0.00 0.00 79 1012.7
20260510205055 67 194 7.0 13.0 0.00 0.00 0.00 78 1012.7
20260510204607 67 165 5.0 10.0 0.00 0.00 0.00 78 1012.7
20260510204055 67 200 5.0 13.0 0.00 0.00 0.00 78 1012.7
20260510203558 67 225 6.0 13.0 0.00 0.00 0.00 79 1012.7
20260510203100 67 263 9.0 13.0 0.00 0.00 0.00 77 1012.8
20260510202557 67 269 6.0 12.0 0.00 0.00 0.00 77 1012.7
20260510202059 67 186 5.0 12.0 0.00 0.00 0.00 77 1012.9
20260510201559 68 191 5.0 11.0 0.00 0.00 0.00 75 1012.8
20260510201057 68 271 5.0 11.0 0.00 0.00 0.00 77 1012.8
20260510200555 68 182 6.0 13.0 0.00 0.00 0.00 76 1012.8
20260510200117 68 232 4.0 13.0 0.00 0.00 0.00 77 1012.8
20260510195557 68 200 4.0 11.0 0.00 0.00 0.00 76 1012.7
20260510195056 68 192 5.0 11.0 0.00 0.00 0.00 76 1012.7
20260510194611 68 209 4.0 11.0 0.00 0.00 0.00 76 1012.8
20260510194057 68 281 5.0 11.0 0.00 0.00 0.00 76 1012.8
20260510193559 68 177 5.0 11.0 0.00 0.00 0.00 74 1012.8
20260510193105 68 255 6.0 11.0 0.00 0.00 0.00 75 1012.8
20260510192601 69 196 5.0 10.0 0.00 0.00 0.00 74 1012.8
20260510192056 69 265 5.0 10.0 0.00 0.00 0.00 76 1012.9
20260510191605 68 264 4.0 11.0 0.00 0.00 0.00 76 1012.8
20260510191056 68 223 5.0 11.0 0.00 0.00 0.00 75 1012.8
20260510190555 69 205 3.0 10.0 0.00 0.00 0.00 75 1012.8
20260510190057 69 171 4.0 11.0 0.00 0.00 0.00 74 1012.8
20260510185555 69 163 6.0 11.0 0.00 0.00 0.00 74 1012.8
20260510185055 69 256 5.0 10.0 0.00 0.00 0.00 74 1012.8
20260510184553 70 159 5.0 12.0 0.00 0.00 0.00 72 1012.9
20260510184055 70 200 5.0 12.0 0.00 0.00 0.00 71 1012.9
20260510183555 71 194 4.0 10.0 0.00 0.00 0.00 70 1012.8
20260510183101 71 178 2.0 10.0 0.00 0.00 0.00 69 1012.8
20260510182557 71 180 1.0 7.0 0.00 0.00 0.00 71 1012.8
20260510182056 70 206 1.0 7.0 0.00 0.00 0.00 72 1012.8
20260510181552 69 296 4.0 7.0 0.00 0.00 0.00 72 1012.8
20260510181058 69 219 1.0 7.0 0.00 0.00 0.00 72 1012.8
20260510180555 69 195 3.0 7.0 0.00 0.00 0.00 73 1012.7
20260510180056 69 237 3.0 7.0 0.00 0.00 0.00 73 1012.7
20260510175555 69 230 1.0 4.0 0.00 0.00 0.00 73 1012.7
20260510175056 69 250 1.0 7.0 0.00 0.00 0.00 74 1012.7
20260510174600 68 0 2.0 7.0 0.00 0.00 0.00 74 1012.7
20260510174057 68 0 3.0 6.0 0.00 0.00 0.00 75 1012.7
20260510173555 68 0 2.0 4.0 0.00 0.00 0.00 74 1012.6
20260510173108 68 219 0.0 5.0 0.00 0.00 0.00 76 1012.6
20260510172556 68 336 1.0 6.0 0.00 0.00 0.00 76 1012.6
20260510172055 67 0 1.0 6.0 0.00 0.00 0.00 77 1012.7
20260510171559 67 192 1.0 7.0 0.00 0.00 0.00 78 1012.7
20260510171057 66 0 2.0 7.0 0.00 0.00 0.00 79 1012.8
20260510170556 66 223 1.0 6.0 0.00 0.00 0.00 80 1012.8
20260510170107 66 257 2.0 6.0 0.00 0.00 0.00 80 1012.8
20260510165557 65 167 1.0 4.0 0.00 0.00 0.00 81 1012.8
20260510165055 64 86 0.0 5.0 0.00 0.00 0.00 83 1012.6
20260510164559 64 0 2.0 5.0 0.00 0.00 0.00 83 1012.6
20260510164055 63 0 1.0 5.0 0.00 0.00 0.00 84 1012.6
20260510163557 63 182 1.0 7.0 0.00 0.00 0.00 85 1012.7
20260510163058 63 219 3.0 7.0 0.00 0.00 0.00 85 1012.5
20260510162556 63 267 2.0 5.0 0.00 0.00 0.00 85 1012.6
20260510162055 63 232 2.0 5.0 0.00 0.00 0.00 85 1012.5
20260510161557 63 211 0.0 3.0 0.00 0.00 0.00 86 1012.4
20260510161055 62 0 0.0 2.0 0.00 0.00 0.00 87 1012.4
20260510160557 62 0 1.0 2.0 0.00 0.00 0.00 87 1012.3
20260510160055 62 0 0.0 4.0 0.00 0.00 0.00 88 1012.3
20260510155559 62 0 0.0 4.0 0.00 0.00 0.00 87 1012.3
20260510155055 61 238 1.0 4.0 0.00 0.00 0.00 87 1012.3
20260510154559 62 202 2.0 4.0 0.00 0.00 0.00 88 1012.2
20260510154056 61 211 0.0 2.0 0.00 0.00 0.00 89 1012.1
20260510153555 61 0 0.0 2.0 0.00 0.00 0.00 89 1012.1
20260510153056 61 0 0.0 2.0 0.00 0.00 0.00 90 1012.2
20260510152559 61 0 0.0 2.0 0.00 0.00 0.00 90 1012.1
20260510152055 60 247 0.0 4.0 0.00 0.00 0.00 90 1012.2
20260510151601 60 0 0.0 4.0 0.00 0.00 0.00 90 1012.2
20260510151055 60 197 1.0 4.0 0.00 0.00 0.00 90 1012.2
20260510150556 60 0 0.0 3.0 0.00 0.00 0.00 91 1012.2
20260510150055 60 0 0.0 3.0 0.00 0.00 0.00 91 1012.2
20260510145556 60 0 0.0 3.0 0.00 0.00 0.00 91 1012.1
20260510145055 60 306 0.0 3.0 0.00 0.00 0.00 91 1012.1
20260510144554 60 0 0.0 3.0 0.00 0.00 0.00 92 1012.1
20260510144055 59 42 1.0 3.0 0.00 0.00 0.00 92 1012.2
20260510143555 59 0 0.0 4.0 0.00 0.00 0.00 92 1012.1
20260510143055 59 0 0.0 4.0 0.00 0.00 0.00 92 1012.1
20260510142558 59 11 1.0 4.0 0.00 0.00 0.00 92 1012.0
20260510142100 59 33 1.0 3.0 0.00 0.00 0.00 92 1012.1
20260510141602 59 0 0.0 3.0 0.00 0.00 0.00 92 1012.0
20260510141056 59 318 0.0 3.0 0.00 0.00 0.00 92 1012.0
20260510140555 59 0 0.0 2.0 0.00 0.00 0.00 93 1012.0
20260510140056 59 0 0.0 4.0 0.00 0.00 0.00 93 1012.0
20260510135556 59 338 0.0 4.0 0.00 0.00 0.00 93 1011.9
20260510135056 59 13 0.0 4.0 0.00 0.00 0.00 93 1011.9
20260510134607 59 0 0.0 0.0 0.00 0.00 0.00 93 1011.8
20260510134058 59 0 0.0 3.0 0.00 0.00 0.00 93 1011.8
20260510133555 59 0 0.0 4.0 0.00 0.00 0.00 93 1011.8
20260510133110 59 339 1.0 5.0 0.00 0.00 0.00 93 1011.8
20260510132555 59 336 1.0 5.0 0.00 0.00 0.00 93 1011.8
20260510132058 59 0 1.0 4.0 0.00 0.00 0.00 93 1011.8
20260510131603 59 0 0.0 3.0 0.00 0.00 0.00 94 1011.7
20260510131056 58 0 0.0 3.0 0.00 0.00 0.00 94 1011.7
20260510130556 58 0 0.0 3.0 0.00 0.00 0.00 94 1011.7
20260510130055 58 0 1.0 3.0 0.00 0.00 0.00 94 1011.6
20260510125555 58 0 0.0 3.0 0.00 0.00 0.00 94 1011.7
20260510125056 58 0 0.0 2.0 0.00 0.00 0.00 94 1011.7
20260510124558 58 0 0.0 3.0 0.00 0.00 0.00 94 1011.8
20260510124056 58 0 1.0 3.0 0.00 0.00 0.00 94 1011.8
20260510123556 58 0 0.0 3.0 0.00 0.00 0.00 94 1011.7
20260510123102 58 0 0.0 3.0 0.00 0.00 0.00 94 1011.7
20260510122558 58 59 0.0 3.0 0.00 0.00 0.00 94 1011.8
20260510122055 58 61 0.0 2.0 0.00 0.00 0.00 95 1011.8
20260510121554 58 0 0.0 2.0 0.00 0.00 0.00 95 1011.8
20260510121055 58 0 0.0 0.0 0.00 0.00 0.00 95 1011.7
20260510120556 58 0 0.0 0.0 0.00 0.00 0.00 95 1011.7
20260510120056 58 0 0.0 2.0 0.00 0.00 0.00 95 1011.7
20260510115558 58 0 0.0 3.0 0.00 0.00 0.00 95 1011.7
20260510115055 58 0 1.0 3.0 0.00 0.00 0.00 95 1011.7
20260510114604 58 0 0.0 2.0 0.00 0.00 0.00 95 1011.7
20260510114056 58 0 0.0 2.0 0.00 0.00 0.00 95 1011.8
20260510113557 58 0 0.0 2.0 0.00 0.00 0.00 95 1011.8
20260510113055 58 49 0.0 2.0 0.00 0.00 0.00 95 1011.7
20260510112556 58 0 0.0 3.0 0.00 0.00 0.00 95 1011.7
20260510112056 58 0 0.0 3.0 0.00 0.00 0.00 95 1011.7
20260510111600 58 0 1.0 3.0 0.00 0.00 0.00 95 1011.6
20260510111055 58 0 0.0 3.0 0.00 0.00 0.00 95 1011.6
20260510110556 58 0 0.0 3.0 0.00 0.00 0.00 95 1011.6
20260510110055 58 113 0.0 4.0 0.00 0.00 0.00 95 1011.6
20260510105556 58 150 0.0 4.0 0.00 0.00 0.00 95 1011.7
20260510105056 57 163 0.0 2.0 0.00 0.00 0.00 95 1011.7
20260510104554 57 0 0.0 3.0 0.00 0.00 0.00 95 1011.8
20260510104058 57 0 1.0 3.0 0.00 0.00 0.00 95 1011.7
20260510103555 57 48 0.0 4.0 0.00 0.00 0.00 95 1011.7
20260510103058 57 42 0.0 4.0 0.00 0.00 0.00 95 1011.6
20260510102556 57 53 1.0 4.0 0.00 0.00 0.00 95 1011.7
20260510102056 57 65 1.0 2.0 0.00 0.00 0.00 95 1011.6
20260510101556 57 65 0.0 2.0 0.00 0.00 0.00 95 1011.5
20260510101056 57 65 1.0 2.0 0.00 0.00 0.00 94 1011.6
20260510100556 57 0 0.0 0.0 0.00 0.00 0.00 95 1011.6
20260510100055 57 0 0.0 0.0 0.00 0.00 0.00 95 1011.7
20260510095556 57 0 0.0 0.0 0.00 0.00 0.00 94 1011.8
20260510095056 57 0 0.0 0.0 0.00 0.00 0.00 94 1011.8
20260510094554 57 0 0.0 2.0 0.00 0.00 0.00 95 1011.9
20260510094058 57 0 0.0 2.0 0.00 0.00 0.00 94 1011.9
20260510093555 57 67 0.0 3.0 0.00 0.00 0.00 94 1011.8
20260510093055 57 54 0.0 3.0 0.00 0.00 0.00 94 1011.9
20260510092555 57 55 0.0 5.0 0.00 0.00 0.00 94 1011.8
20260510092057 57 0 2.0 5.0 0.00 0.00 0.00 94 1011.8
20260510091559 57 58 1.0 5.0 0.00 0.00 0.00 94 1011.8
20260510091056 57 65 2.0 5.0 0.00 0.00 0.00 94 1011.8
20260510090556 57 62 0.0 4.0 0.00 0.00 0.00 94 1011.8
20260510090100 57 55 1.0 4.0 0.00 0.00 0.00 93 1011.8
20260510085559 57 0 0.0 6.0 0.00 0.00 0.00 94 1011.8
20260510085056 57 118 2.0 6.0 0.00 0.00 0.00 93 1011.8
20260510084555 57 67 1.0 4.0 0.00 0.00 0.00 93 1011.8
20260510084056 58 50 2.0 4.0 0.00 0.00 0.00 93 1011.7
20260510083556 58 59 1.0 4.0 0.00 0.00 0.00 93 1011.7
20260510083057 58 86 0.0 3.0 0.00 0.00 0.00 93 1011.7
20260510082555 58 0 0.0 4.0 0.00 0.00 0.00 93 1011.8
20260510082055 58 58 2.0 4.0 0.00 0.00 0.00 93 1011.8
20260510081556 58 65 2.0 4.0 0.00 0.00 0.00 93 1011.9
20260510081056 58 0 0.0 2.0 0.00 0.00 0.00 93 1011.9
20260510080555 58 109 0.0 3.0 0.00 0.00 0.00 93 1012.0
20260510080054 58 97 0.0 4.0 0.00 0.00 0.00 93 1012.0
20260510075557 58 64 1.0 4.0 0.00 0.00 0.00 93 1012.1
20260510075055 58 0 0.0 0.0 0.00 0.00 0.00 93 1012.1
20260510074557 58 0 0.0 0.0 0.00 0.00 0.00 93 1012.2
20260510074056 58 0 0.0 0.0 0.00 0.00 0.00 93 1012.1
20260510073556 58 0 0.0 0.0 0.00 0.00 0.00 93 1012.2
20260510073112 58 0 0.0 0.0 0.00 0.00 0.00 93 1012.2
20260510072556 58 0 0.0 0.0 0.00 0.00 0.00 93 1012.2
20260510072056 58 0 0.0 0.0 0.00 0.00 0.00 93 1012.2
20260510071605 58 0 0.0 2.0 0.00 0.00 0.00 92 1012.2
20260510071055 58 0 0.0 2.0 0.00 0.00 0.00 92 1012.3
20260510070555 58 55 0.0 2.0 0.00 0.00 0.00 92 1012.2
20260510070056 58 86 0.0 2.0 0.00 0.00 0.00 92 1012.2
20260510065556 58 0 0.0 3.0 0.00 0.00 0.00 92 1012.2
20260510065056 58 0 1.0 3.0 0.00 0.00 0.00 92 1012.3
20260510064600 58 0 0.0 3.0 0.00 0.00 0.00 92 1012.2
20260510064056 58 61 1.0 3.0 0.00 0.00 0.00 92 1012.3
20260510063556 58 0 0.0 2.0 0.00 0.00 0.00 92 1012.2
20260510063103 58 0 1.0 2.0 0.00 0.00 0.00 92 1012.2
20260510062556 58 0 0.0 2.0 0.00 0.00 0.00 92 1012.2
20260510062056 58 0 0.0 3.0 0.00 0.00 0.00 92 1012.2
20260510061558 58 0 0.0 3.0 0.00 0.00 0.00 92 1012.1
20260510061059 59 77 1.0 3.0 0.00 0.00 0.00 92 1012.2
20260510060557 58 171 0.0 2.0 0.00 0.00 0.00 92 1012.2
20260510060059 59 0 0.0 2.0 0.00 0.00 0.00 92 1012.2
20260510055558 58 0 0.0 3.0 0.00 0.00 0.00 92 1012.2
20260510055056 59 0 1.0 3.0 0.00 0.00 0.00 92 1012.2
20260510054559 59 167 0.0 1.0 0.00 0.00 0.00 92 1012.2
20260510054056 58 0 0.0 2.0 0.00 0.00 0.00 92 1012.3
20260510053555 58 0 0.0 3.0 0.00 0.00 0.00 92 1012.3
20260510053107 58 69 0.0 3.0 0.00 0.00 0.00 92 1012.3
20260510052555 59 0 0.0 3.0 0.00 0.00 0.00 92 1012.3
20260510052055 59 0 1.0 3.0 0.00 0.00 0.00 92 1012.3
20260510051601 59 0 0.0 2.0 0.00 0.00 0.00 92 1012.2
20260510051057 59 0 0.0 0.0 0.00 0.00 0.00 92 1012.3
20260510050557 59 0 0.0 1.0 0.00 0.00 0.00 93 1012.2
20260510050059 59 0 0.0 1.0 0.00 0.00 0.00 93 1012.1
20260510045556 58 0 0.0 0.0 0.00 0.00 0.00 93 1012.1
20260510045057 58 0 0.0 0.0 0.00 0.00 0.00 93 1012.2
20260510044554 58 0 0.0 0.0 0.00 0.00 0.00 93 1012.1
20260510044057 58 0 0.0 0.0 0.00 0.00 0.00 93 1012.1
20260510043648 58 0 0.0 2.0 0.00 0.00 0.00 93 1012.0
20260510043108 58 0 0.0 3.0 0.00 0.00 0.00 93 1011.9
20260510042555 58 0 0.0 3.0 0.00 0.00 0.00 93 1011.9
20260510042055 58 11 0.0 2.0 0.00 0.00 0.00 93 1011.9
20260510041558 58 0 0.0 2.0 0.00 0.00 0.00 93 1012.0
20260510041056 58 0 0.0 4.0 0.00 0.00 0.00 93 1011.9
20260510040556 58 309 0.0 4.0 0.00 0.00 0.00 93 1011.9
20260510040109 58 298 2.0 4.0 0.00 0.00 0.00 92 1011.9
20260510035556 58 0 0.0 7.0 0.00 0.00 0.00 93 1011.8
20260510035055 58 240 2.0 7.0 0.00 0.00 0.00 92 1011.9
20260510034600 58 272 2.0 7.0 0.00 0.00 0.00 92 1011.8
20260510034055 58 269 2.0 7.0 0.00 0.00 0.00 92 1011.8
20260510033557 58 0 1.0 4.0 0.00 0.00 0.00 92 1011.7
20260510033101 58 263 0.0 5.0 0.00 0.00 0.00 92 1011.6
20260510032556 58 289 1.0 6.0 0.00 0.00 0.00 92 1011.6
20260510032056 58 314 2.0 6.0 0.00 0.00 0.00 92 1011.5
20260510031557 58 272 1.0 4.0 0.00 0.00 0.00 92 1011.5
20260510031055 58 205 0.0 5.0 0.00 0.00 0.00 92 1011.4
20260510030555 58 0 1.0 7.0 0.00 0.00 0.00 92 1011.2
20260510030056 59 165 3.0 7.0 0.00 0.00 0.00 92 1011.2
20260510025555 59 281 2.0 6.0 0.00 0.00 0.00 92 1011.2
20260510025056 59 272 0.0 5.0 0.00 0.00 0.00 92 1011.1
20260510024558 59 0 0.0 7.0 0.00 0.00 0.00 92 1011.1
20260510024056 59 284 3.0 8.0 0.00 0.00 0.00 91 1011.1
20260510023555 59 264 3.0 8.0 0.00 0.00 0.00 91 1010.9
20260510023055 59 176 4.0 8.0 0.00 0.00 0.00 91 1010.8
20260510022556 59 219 3.0 6.0 0.00 0.00 0.00 91 1010.8
20260510022056 59 250 1.0 8.0 0.00 0.00 0.00 91 1010.8
20260510021600 59 189 4.0 9.0 0.00 0.00 0.00 91 1010.8
20260510021056 59 198 4.0 9.0 0.00 0.00 0.00 91 1010.7
20260510020556 59 181 3.0 7.0 0.00 0.00 0.00 91 1010.6
20260510020055 59 219 1.0 6.0 0.00 0.00 0.00 91 1010.7
20260510015555 59 273 2.0 7.0 0.00 0.00 0.00 91 1010.6
20260510015059 59 166 3.0 9.0 0.00 0.00 0.00 91 1010.6
20260510014611 59 287 4.0 10.0 0.00 0.00 0.00 91 1010.6
20260510014055 59 276 5.0 10.0 0.00 0.00 0.00 91 1010.6
20260510013558 59 267 5.0 11.0 0.00 0.00 0.00 91 1010.6
20260510013103 59 278 7.0 12.0 0.00 0.00 0.00 90 1010.7
20260510012555 60 275 6.0 12.0 0.00 0.00 0.00 89 1010.6
20260510012055 60 262 5.0 11.0 0.00 0.00 0.00 89 1010.6
20260510011557 60 275 7.0 13.0 0.00 0.00 0.00 89 1010.7
20260510011056 61 299 7.0 13.0 0.00 0.00 0.00 88 1010.6
20260510010556 61 200 6.0 11.0 0.00 0.00 0.00 88 1010.6
20260510010054 61 173 5.0 11.0 0.00 0.00 0.00 87 1010.6
20260510005556 61 215 5.0 11.0 0.00 0.00 0.00 87 1010.6
20260510005056 62 175 6.0 11.0 0.00 0.00 0.00 86 1010.6
20260510004559 62 187 5.0 11.0 0.00 0.00 0.00 86 1010.5
20260510004100 62 264 3.0 10.0 0.00 0.00 0.00 86 1010.4
20260510003556 62 172 5.0 10.0 0.00 0.00 0.00 85 1010.5
20260510003105 63 269 5.0 13.0 0.00 0.00 0.00 85 1010.4
20260510002555 63 215 6.0 13.0 0.00 0.00 0.00 84 1010.5
20260510002055 63 222 6.0 10.0 0.00 0.00 0.00 83 1010.6
20260510001555 64 171 4.0 12.0 0.00 0.00 0.00 84 1010.6
20260510001055 64 173 6.0 12.0 0.00 0.00 0.00 82 1010.7
20260510000556 64 228 5.0 14.0 0.00 0.00 0.00 83 1010.7
20260510000059 64 146 7.0 14.0 0.00 0.00 0.00 81 1010.7
20260509235556 65 269 5.0 12.0 0.00 0.00 0.00 82 1010.6
20260509235056 65 213 8.0 12.0 0.00 0.00 0.00 80 1010.7
20260509234558 66 171 3.0 10.0 0.00 0.00 0.00 79 1010.6
20260509234056 66 250 4.0 12.0 0.00 0.00 0.00 80 1010.6
20260509233600 66 227 5.0 12.0 0.00 0.00 0.00 80 1010.5
20260509233101 66 232 5.0 12.0 0.00 0.00 0.00 79 1010.5
20260509232559 66 162 3.0 12.0 0.00 0.00 0.00 79 1010.7
20260509232057 66 238 6.0 12.0 0.00 0.00 0.00 79 1010.6
20260509231558 66 214 4.0 13.0 0.00 0.00 0.00 80 1010.6
20260509231055 66 279 6.0 13.0 0.00 0.00 0.00 80 1010.7
20260509230555 66 182 7.0 13.0 0.00 0.00 0.00 79 1010.6
20260509230100 67 178 4.0 11.0 0.00 0.00 0.00 78 1010.7
20260509225556 67 223 6.0 11.0 0.00 0.00 0.00 79 1010.6
20260509225055 67 289 4.0 13.0 0.00 0.00 0.00 79 1010.7
20260509224605 66 189 6.0 13.0 0.00 0.00 0.00 80 1010.8
20260509224056 66 286 7.0 13.0 0.00 0.00 0.00 79 1010.9
20260509223555 67 277 6.0 13.0 0.00 0.00 0.00 80 1011.0
20260509223059 67 288 7.0 13.0 0.00 0.00 0.00 77 1011.1
20260509222559 67 228 4.0 11.0 0.00 0.00 0.00 78 1011.1
20260509222056 67 267 5.0 11.0 0.00 0.00 0.00 78 1011.1
20260509221606 68 254 6.0 13.0 0.00 0.00 0.00 76 1011.2
20260509221055 68 198 6.0 13.0 0.00 0.00 0.00 77 1011.3
20260509220558 68 173 7.0 13.0 0.00 0.00 0.00 78 1011.4
20260509220055 68 190 6.0 13.0 0.00 0.00 0.00 76 1011.4
20260509215556 68 130 5.0 11.0 0.00 0.00 0.00 77 1011.6
20260509215057 68 184 6.0 13.0 0.00 0.00 0.00 76 1011.6